[[{"header":{"parameterUnit":"m.s-1","parameterCategory":1,"la1":30.2991,"la2":30.254,"lo1":-89.0895,"lo2":-89.0444,"dy":0.0017,"dx":0.0017,"nx":28,"ny":28,"refTime":"2025-02-27T09:00:00:Z","depth":0,"parameterNumber":2,"parameterNumberName":"U-component_of_WINDS"},"data":[0,0,0,0,0,0,0,0,0,0,0,0,0,0,0,0,0,0,0,0,0,0,0,0,0,0,0,0,0,0,0,0,0,0,0,0,0,0,0,0,0,0,0,0,0,0,0,0,0,0,0,0,0,0,0,0,0,0,0.0002,0.0002,0,-0.0012,-0.0013,-0.0013,-0.0021,-0.0021,-0.0021,-0.0021,-0.0036,-0.0037,-0.0037,0,0,0,0,0,0,0,0,0,0,0,0,0,0.0022,0.0022,0.0002,0.0002,0.0002,-0.0012,-0.0013,-0.0013,-0.0021,-0.0021,-0.0021,-0.0021,-0.0036,-0.0037,-0.0037,0,0,0,0,0,0,0,0,0,0,0,0,0,0.0011,0.0022,0.0002,-0.0004,-0.0005,-0.0012,-0.0013,-0.0013,-0.0021,-0.0021,-0.0021,-0.0021,-0.0036,-0.0037,-0.0037,-0.0039,0,0,-0.0039,-0.0039,0,0,0,0,0,0,0,0,0.0012,0.001,-0.0003,-0.0004,-0.0005,-0.0015,-0.0011,-0.0022,-0.0021,-0.0015,-0.0021,-0.0021,-0.0029,-0.003,-0.0033,-0.004,-0.0041,-0.0039,-0.0039,-0.0039,-0.004,0,0,0,0,0,0,0,0.0013,0.0011,-0.0004,-0.0003,-0.0004,-0.0006,-0.0008,-0.0013,-0.0022,-0.0016,-0.0016,-0.0018,-0.003,-0.0032,-0.0033,-0.0041,-0.0039,-0.0039,-0.004,-0.004,-0.0051,-0.0051,0,0,0,0,0,0,0.0014,0.0012,-0.0003,-0.0004,0.0004,-0.0007,-0.0008,-0.0012,-0.0022,-0.0023,-0.0018,-0.0018,-0.0031,-0.0033,-0.0034,-0.0037,-0.0039,-0.004,-0.004,-0.0051,-0.0051,-0.0051,0,0,0,0,0,0,0.0015,0.0013,-0.0003,0.0004,0.0001,-0.0007,-0.001,-0.0012,-0.0015,-0.0023,-0.0025,-0.0019,-0.0031,-0.0033,-0.0038,-0.0038,-0.004,-0.0041,-0.0051,-0.0051,-0.0051,-0.0044,0,0,0,0,0,0,0.0015,0.0013,0.0012,0.0004,0.0001,-0.0006,-0.001,-0.0012,-0.0016,-0.0016,-0.0025,-0.0026,-0.0032,-0.0037,-0.0038,-0.0039,-0.0041,-0.0051,-0.0051,-0.0051,-0.0044,-0.0044,-0.0043,0,0,0,0,0,0.0016,0.0015,0.0012,0.0011,-0.0,-0.0006,-0.0008,-0.0014,-0.0016,-0.0017,-0.0022,-0.0026,-0.0038,-0.0038,-0.0039,-0.0039,-0.0051,-0.0051,-0.0051,-0.0044,-0.0044,-0.0043,0,0,0,0,0,0,0.0024,0.0014,0.0011,0.0006,0.0001,-0.0008,-0.0009,-0.0013,-0.0018,-0.0019,-0.0026,-0.0028,-0.0032,-0.0036,-0.0036,-0.0042,-0.0045,-0.0045,-0.0039,-0.0039,-0.0038,-0.0037,-0.0042,0,0,0,0,0,0.0025,0.0021,0.0012,0.0009,0.0007,-0.0001,-0.0004,-0.0008,-0.0014,-0.0016,-0.0022,-0.0028,-0.0033,-0.0036,-0.0041,-0.0045,-0.0047,-0.0046,-0.0045,-0.0045,-0.0045,-0.0047,-0.0047,-0.005,-0.005,-0.005,0,0,0.0027,0.0021,0.0019,0.001,0.0006,0.0002,-0.0003,-0.0007,-0.001,-0.0017,-0.0022,-0.0026,-0.0033,-0.0038,-0.004,-0.0041,-0.0044,-0.0045,-0.0044,-0.0045,-0.0047,-0.0047,-0.0046,-0.005,-0.005,-0.005,0,0,0.0029,0.0024,0.0021,0.0017,0.001,0.0005,0.0004,-0.0004,-0.0007,-0.0012,-0.0018,-0.0021,-0.003,-0.0035,-0.0038,-0.0037,-0.0041,-0.0039,-0.0036,-0.0038,-0.0038,-0.0037,-0.0037,-0.0037,-0.0039,-0.0039,-0.0039,0,0.0033,0.0027,0.002,0.0017,0.0013,0.0007,0.0004,-0.0001,-0.0009,-0.0011,-0.0013,-0.0023,-0.0028,-0.0034,-0.0034,-0.0036,-0.0037,-0.0038,-0.0037,-0.0037,-0.0037,-0.0037,-0.0037,-0.0039,-0.0039,-0.0039,-0.0039,0,0.0032,0.0028,0.0026,0.0018,0.0015,0.0011,0.0004,0.0001,-0.0003,-0.0007,-0.0012,-0.0019,-0.0025,-0.0027,-0.003,-0.0032,-0.0033,-0.0036,-0.0038,-0.0036,-0.0036,-0.0036,-0.0038,-0.0038,-0.0038,-0.0038,0,0,0.0038,0.0027,0.0027,0.0023,0.0015,0.0011,0.0008,0.0002,-0.0001,-0.0006,-0.0009,-0.0016,-0.0019,-0.0023,-0.0027,-0.0029,-0.0028,-0.0032,-0.0032,-0.003,-0.003,-0.0028,-0.0028,-0.003,-0.003,-0.0031,-0.003,0,0.0039,0.0033,0.0027,0.0022,0.0018,0.0012,0.0009,0.0004,-0.0001,-0.0005,-0.001,-0.0015,-0.0018,-0.002,-0.0022,-0.0028,-0.0028,-0.0028,-0.0033,-0.0034,-0.0031,-0.0028,-0.0025,-0.0024,-0.003,-0.003,-0.003,0,0.004,0.0035,0.003,0.0022,0.002,0.0017,0.0011,0.0008,0.0001,-0.0002,-0.0006,-0.0011,-0.0015,-0.0017,-0.0023,-0.0023,-0.0025,-0.0028,-0.0028,-0.0029,-0.0031,-0.0028,-0.0024,-0.0024,-0.003,-0.003,-0.003,0,0.0045,0.0037,0.0033,0.003,0.0021,0.0019,0.0015,0.0009,0.0006,0.0001,-0.0002,-0.0007,-0.001,-0.0015,-0.0021,-0.0022,-0.0026,-0.0029,-0.0028,-0.0028,-0.0029,-0.0029,-0.0025,-0.0031,-0.0031,-0.0031,-0.0031,0,0.0047,0.0044,0.0035,0.0033,0.003,0.0023,0.002,0.0016,0.001,0.0007,0.0001,-0.0002,-0.001,-0.0014,-0.0019,-0.0023,-0.0024,-0.0027,-0.0028,-0.0026,-0.0026,-0.0028,-0.0028,-0.0031,-0.0031,-0.0031,-0.0031,0,0.0053,0.0046,0.0042,0.0034,0.0031,0.0029,0.0022,0.002,0.0015,0.0011,0.0009,0.0002,-0.0003,-0.0009,-0.0017,-0.002,-0.0023,-0.0025,-0.0021,-0.0022,-0.0021,-0.0021,-0.0018,-0.0018,-0.0024,-0.0024,-0.0024,0,0.0054,0.0052,0.0044,0.0041,0.0037,0.0033,0.003,0.0023,0.002,0.0013,0.0011,0.0006,0.0001,-0.0006,-0.0013,-0.0018,-0.002,-0.0019,-0.0021,-0.0019,-0.002,-0.002,-0.002,-0.0018,-0.0018,-0.0018,-0.0018,0,0.0058,0.0055,0.0051,0.0045,0.0041,0.0037,0.0032,0.003,0.0022,0.0019,0.0014,0.001,0.0003,-0.0002,-0.0008,-0.0012,-0.0016,-0.0017,-0.0018,-0.0016,-0.0013,-0.0014,-0.0019,-0.0017,-0.0017,-0.0017,-0.0017,-0.0017,0.0062,0.0059,0.0053,0.0049,0.0044,0.004,0.0037,0.0032,0.0028,0.0022,0.0018,0.0013,0.0007,-0.0002,-0.0006,-0.001,-0.0011,-0.0012,-0.0012,-0.0012,-0.0011,-0.0012,-0.0011,-0.0011,-0.0011,-0.0011,-0.0011,0,0.0065,0.0061,0.0057,0.005,0.0046,0.0043,0.0037,0.0035,0.003,0.0025,0.0021,0.0015,0.001,0.0003,-0.0002,-0.0004,-0.0006,-0.0005,-0.0005,-0.0006,-0.0009,-0.0009,-0.0004,-0.0004,-0.0004,-0.0004,-0.0004,-0.0004,0.0067,0.0063,0.0059,0.0053,0.0049,0.0044,0.0042,0.0037,0.0033,0.0027,0.0023,0.0019,0.0013,0.0007,0.0002,0.0,-0.0001,0.0,-0.0002,-0.0005,-0.0006,-0.0006,-0.0006,-0.0,-0.0,0.0001,0.0001,0.0002]},{"header":{"parameterUnit":"m.s-1","parameterCategory":1,"la1":30.2991,"la2":30.254,"lo1":-89.0895,"lo2":-89.0444,"dy":0.0017,"dx":0.0017,"nx":28,"ny":28,"refTime":"2025-02-27T09:00:00:Z","depth":0,"parameterNumber":3,"parameterNumberName":"V-component_of_WINDS"},"data":[0,0,0,0,0,0,0,0,0,0,0,0,0,0,0,0,0,0,0,0,0,0,0,0,0,0,0,0,0,0,0,0,0,0,0,0,0,0,0,0,0,0,0,0,0,0,0,0,0,0,0,0,0,0,0,0,0,0,0.0401,0.0402,0,0.0413,0.0414,0.0414,0.0393,0.0393,0.0392,0.0391,0.0404,0.0405,0.0406,0,0,0,0,0,0,0,0,0,0,0,0,0,0.0361,0.0362,0.0401,0.0402,0.0402,0.0413,0.0414,0.0414,0.0393,0.0393,0.0392,0.0391,0.0404,0.0405,0.0406,0,0,0,0,0,0,0,0,0,0,0,0,0,0.0376,0.0362,0.0401,0.0393,0.0392,0.0413,0.0414,0.0414,0.0394,0.0393,0.0392,0.0391,0.0404,0.0405,0.0407,0.0437,0,0,0.0411,0.0412,0,0,0,0,0,0,0,0,0.0375,0.0378,0.0394,0.0394,0.0393,0.0401,0.0404,0.0422,0.0394,0.0393,0.0391,0.039,0.0404,0.0405,0.041,0.0437,0.0438,0.0411,0.0412,0.0413,0.0413,0,0,0,0,0,0,0,0.0374,0.0377,0.0406,0.0394,0.0394,0.0389,0.039,0.0407,0.0404,0.0393,0.0392,0.0393,0.0404,0.0409,0.041,0.0438,0.0411,0.0413,0.0414,0.0414,0.049,0.0491,0,0,0,0,0,0,0.0374,0.0376,0.0406,0.0407,0.0381,0.039,0.0391,0.0399,0.0404,0.0404,0.0394,0.0392,0.0407,0.0409,0.0411,0.0446,0.0413,0.0414,0.0415,0.0489,0.0491,0.0492,0,0,0,0,0,0,0.0373,0.0377,0.0405,0.0391,0.0394,0.0392,0.0401,0.04,0.0405,0.0405,0.0404,0.04,0.0406,0.0409,0.043,0.0447,0.0415,0.0416,0.0488,0.049,0.0491,0.0518,0,0,0,0,0,0,0.0372,0.0377,0.0389,0.0391,0.0395,0.0425,0.0402,0.0401,0.0408,0.0405,0.041,0.041,0.0405,0.0428,0.0432,0.0448,0.0417,0.0487,0.0489,0.0491,0.0516,0.0521,0.0525,0,0,0,0,0,0.0371,0.0396,0.0389,0.0393,0.041,0.0426,0.0428,0.0422,0.0409,0.0421,0.042,0.041,0.0444,0.0431,0.0434,0.0451,0.0485,0.0488,0.0491,0.0514,0.052,0.0524,0,0,0,0,0,0,0.0395,0.0396,0.0389,0.0415,0.0421,0.0422,0.0437,0.0428,0.0438,0.0435,0.0427,0.0428,0.0452,0.0454,0.0439,0.0481,0.0463,0.0466,0.0479,0.0484,0.0489,0.0488,0.0419,0,0,0,0,0,0.0404,0.0417,0.0417,0.044,0.0443,0.044,0.0447,0.0441,0.0447,0.0449,0.045,0.0456,0.0468,0.0476,0.0487,0.0515,0.0516,0.0529,0.0533,0.0537,0.054,0.0555,0.0561,0.05,0.05,0.05,0,0,0.0422,0.0423,0.0432,0.0445,0.0449,0.0463,0.0442,0.0458,0.0468,0.0451,0.0472,0.0473,0.0479,0.0504,0.0515,0.0506,0.0557,0.054,0.0543,0.0544,0.0559,0.0564,0.057,0.0502,0.0502,0.0501,0,0,0.0461,0.0464,0.0483,0.0487,0.0492,0.049,0.0494,0.0497,0.0497,0.0518,0.0505,0.0517,0.0538,0.0543,0.0548,0.0588,0.0578,0.0591,0.0615,0.063,0.0634,0.0639,0.0653,0.0659,0.0594,0.0595,0.0595,0,0.0483,0.0503,0.0495,0.0511,0.0517,0.0502,0.0522,0.0526,0.0535,0.0539,0.0529,0.0554,0.0557,0.0583,0.0593,0.0597,0.0602,0.0591,0.0634,0.0638,0.0642,0.0656,0.0662,0.0596,0.0596,0.0596,0.0596,0,0.0529,0.0544,0.0559,0.0567,0.0575,0.0593,0.0587,0.0596,0.0589,0.0588,0.0608,0.0611,0.0622,0.0628,0.0622,0.0653,0.0647,0.0635,0.0617,0.065,0.0663,0.0668,0.0598,0.0598,0.0597,0.0597,0,0,0.0586,0.0589,0.0595,0.0598,0.0602,0.0613,0.063,0.0641,0.0648,0.0654,0.0669,0.0686,0.0675,0.0681,0.0675,0.0688,0.072,0.0675,0.0675,0.0684,0.0754,0.0764,0.077,0.0713,0.0714,0.0715,0.0754,0,0.0626,0.0656,0.0648,0.0678,0.0691,0.0676,0.069,0.0695,0.0693,0.0704,0.0702,0.0715,0.0699,0.0702,0.0714,0.0713,0.0734,0.071,0.0727,0.0727,0.0727,0.0777,0.0787,0.0824,0.0759,0.076,0.076,0,0.0677,0.0685,0.0715,0.0717,0.0722,0.0735,0.0744,0.0754,0.0758,0.0756,0.0762,0.0753,0.077,0.0751,0.0774,0.0758,0.0764,0.0764,0.0766,0.0768,0.0747,0.0781,0.0836,0.0842,0.0768,0.0768,0.0767,0,0.0716,0.0734,0.0755,0.0758,0.076,0.077,0.0771,0.0774,0.0781,0.0788,0.0792,0.0801,0.0807,0.0814,0.0808,0.0794,0.0832,0.0812,0.0831,0.0832,0.0841,0.0841,0.0899,0.0843,0.0843,0.0843,0.0843,0,0.0762,0.0782,0.0772,0.0785,0.0806,0.0797,0.0818,0.0818,0.082,0.0833,0.082,0.0832,0.0823,0.0834,0.0829,0.0849,0.0851,0.085,0.0849,0.0852,0.0852,0.0857,0.0855,0.0845,0.0844,0.0844,0.0844,0,0.0811,0.0805,0.0827,0.0826,0.0826,0.0842,0.0842,0.0854,0.085,0.0866,0.0869,0.0865,0.0877,0.0871,0.0884,0.0881,0.0907,0.0901,0.0905,0.0905,0.0924,0.0923,0.0988,0.0996,0.0934,0.0935,0.0936,0,0.0841,0.0856,0.0857,0.0864,0.0866,0.0878,0.0884,0.0875,0.0882,0.0887,0.0898,0.0909,0.0918,0.0938,0.0936,0.0945,0.0941,0.0963,0.0942,0.0945,0.0942,0.0942,0.0943,0.0967,0.0968,0.0969,0.0969,0,0.0896,0.0892,0.0902,0.091,0.0918,0.0924,0.0929,0.0936,0.0927,0.0935,0.0947,0.0954,0.0966,0.0978,0.0986,0.0987,0.0977,0.0975,0.098,0.0984,0.0986,0.0986,0.0918,0.0974,0.0974,0.0973,0.0973,0.0973,0.0937,0.0949,0.0951,0.0962,0.0965,0.097,0.0981,0.0978,0.0988,0.0998,0.0991,0.1006,0.1008,0.1018,0.1021,0.1032,0.1023,0.103,0.1032,0.1035,0.1038,0.0983,0.1033,0.1033,0.1033,0.1033,0.1033,0,0.0992,0.0992,0.1002,0.1009,0.1018,0.1006,0.1011,0.1019,0.1031,0.1035,0.1043,0.1056,0.1067,0.1065,0.1074,0.1084,0.1079,0.1086,0.1086,0.1087,0.1044,0.1039,0.109,0.109,0.109,0.109,0.109,0.109,0.1021,0.1041,0.1037,0.1058,0.1058,0.1072,0.1076,0.108,0.1083,0.1098,0.1107,0.1105,0.1106,0.1115,0.1124,0.1123,0.1128,0.1137,0.1135,0.1095,0.109,0.1085,0.108,0.1138,0.1138,0.1176,0.1177,0.1177]}]]